Shamal Skanor — SIBN — position and weather

sailwx.info

Track history (hours):
 
Tides and Currents Weather Stations Pressure Air Temp Water Temp Dewpoint Dewpoint Depression Visibility Wind Speed Wind Dir Waves Ship Positions

Shamal Skanor

Last reported at 2014-Jul-27 14:15 UTC. Time now 2014-Jul-28 10:22 UTC.
Position N 55°25' E 012°50'.

Length 15 m.

Type: Pleasure craft. MMSI: 265684130.

Date/timePositionNaut miles runAvg speedWind from/ knotsBaromVisibWave heightAir tempDewpointWater temp
2014-Jul-27 14:15N 55°25' E 012°50'0 0.3
2014-Jul-27 13:22N 55°25' E 012°50'0 0.0
2014-Jul-27 12:25N 55°25' E 012°50'0 0.0
2014-Jul-27 11:31N 55°25' E 012°50'0 0.0
2014-Jul-27 10:31N 55°25' E 012°50'  
2014-Jul-24 17:33N 55°26' E 012°50'1 0.0
2014-Jul-23 10:30N 55°26' E 012°48'4 4.6
2014-Jul-23 09:33N 55°29' E 012°44'5 4.9
2014-Jul-23 08:34N 55°34' E 012°42'2 0.1
2014-Jul-22 19:05N 55°36' E 012°41'0 0.0
2014-Jul-22 18:32N 55°36' E 012°41'0 0.0
2014-Jul-22 17:29N 55°36' E 012°41'0 0.0
2014-Jul-22 16:32N 55°36' E 012°41'0 0.0
2014-Jul-22 15:32N 55°36' E 012°41'0 0.0
2014-Jul-22 14:32N 55°36' E 012°41'0 0.0
2014-Jul-22 13:32N 55°36' E 012°41'0 0.0
2014-Jul-22 12:32N 55°36' E 012°41'2 1.6
2014-Jul-22 11:33N 55°34' E 012°41'5 4.9
2014-Jul-22 10:33N 55°30' E 012°45'5 3.7
2014-Jul-22 09:13N 55°25' E 012°49'0 0.0
2014-Jul-20 15:28N 55°25' E 012°50'0 0.0
2014-Jul-20 14:28N 55°25' E 012°50'51 1.0
2014-Jul-18 10:33N 54°40' E 013°30'  
Track history (hours):
 
Tides and Currents Weather Stations Pressure Air Temp Water Temp Dewpoint Dewpoint Depression Visibility Wind Speed Wind Dir Waves Ship Positions

Shamal Skanor

Last reported at 2014-Jul-27 14:15 UTC. Time now 2014-Jul-28 10:22 UTC.
Position N 55°25' E 012°50'.

Length 15 m.

Type: Pleasure craft. MMSI: 265684130.

Date/timePositionNaut miles runAvg speedWind from/ knotsBaromVisibWave heightAir tempDewpointWater temp
2014-Jul-27 14:15N 55°25' E 012°50'0 0.3
2014-Jul-27 13:22N 55°25' E 012°50'0 0.0
2014-Jul-27 12:25N 55°25' E 012°50'0 0.0
2014-Jul-27 11:31N 55°25' E 012°50'0 0.0
2014-Jul-27 10:31N 55°25' E 012°50'  
2014-Jul-24 17:33N 55°26' E 012°50'1 0.0
2014-Jul-23 10:30N 55°26' E 012°48'4 4.6
2014-Jul-23 09:33N 55°29' E 012°44'5 4.9
2014-Jul-23 08:34N 55°34' E 012°42'2 0.1
2014-Jul-22 19:05N 55°36' E 012°41'0 0.0
2014-Jul-22 18:32N 55°36' E 012°41'0 0.0
2014-Jul-22 17:29N 55°36' E 012°41'0 0.0
2014-Jul-22 16:32N 55°36' E 012°41'0 0.0
2014-Jul-22 15:32N 55°36' E 012°41'0 0.0
2014-Jul-22 14:32N 55°36' E 012°41'0 0.0
2014-Jul-22 13:32N 55°36' E 012°41'0 0.0
2014-Jul-22 12:32N 55°36' E 012°41'2 1.6
2014-Jul-22 11:33N 55°34' E 012°41'5 4.9
2014-Jul-22 10:33N 55°30' E 012°45'5 3.7
2014-Jul-22 09:13N 55°25' E 012°49'0 0.0
2014-Jul-20 15:28N 55°25' E 012°50'0 0.0
2014-Jul-20 14:28N 55°25' E 012°50'51 1.0
2014-Jul-18 10:33N 54°40' E 013°30'  

Dump ship's entire track history